DW2762 Weather Reports


Display with metric or nautical units.
time (UTC)temp
F
wind
direction
speed
MPH
gust
MPH
rain 1hr
in
rain 24hr
in
rain mn
in
humidity
%
barometer
mb
20260906193110 59 346 7.0 10.0 0.00 0.00 0.00 62 1027.5
20260906191609 60 355 2.0 8.0 0.00 0.00 0.00 60 1027.5
20260906184610 61 5 3.0 7.0 0.00 0.00 0.00 57 1027.6
20260906183109 61 10 4.0 8.0 0.00 0.00 0.00 57 1027.5
20260906181609 61 25 5.0 7.0 0.00 0.00 0.00 57 1027.5
20260906180109 62 350 4.0 5.0 0.00 0.00 0.00 56 1027.4
20260906174609 63 318 3.0 5.0 0.00 0.00 0.00 54 1027.3
20260906173109 65 349 2.0 4.0 0.00 0.00 0.00 52 1027.1
20260906171609 66 340 4.0 5.0 0.00 0.00 0.00 50 1027.1
20260906170109 67 320 5.0 9.0 0.00 0.00 0.00 49 1026.9
20260906164609 67 340 4.0 8.0 0.00 0.00 0.00 48 1026.7
20260906163108 68 329 5.0 10.0 0.00 0.00 0.00 46 1026.7
20260906161609 69 355 7.0 10.0 0.00 0.00 0.00 46 1026.6
20260906154613 70 302 4.0 12.0 0.00 0.00 0.00 43 1026.4
20260906153113 70 309 4.0 9.0 0.00 0.00 0.00 43 1026.5
20260906151613 71 294 3.0 8.0 0.00 0.00 0.00 43 1026.5
20260906150113 71 322 4.0 10.0 0.00 0.00 0.00 43 1026.5
20260906144614 71 328 5.0 10.0 0.00 0.00 0.00 41 1026.6
20260906143113 72 264 2.0 10.0 0.00 0.00 0.00 41 1026.6
20260906141613 72 343 4.0 10.0 0.00 0.00 0.00 41 1026.7
20260906140113 72 300 1.0 9.0 0.00 0.00 0.00 42 1026.7
20260906134612 72 311 6.0 11.0 0.00 0.00 0.00 42 1026.7
20260906133112 72 282 6.0 12.0 0.00 0.00 0.00 41 1026.8
20260906130112 71 323 4.0 10.0 0.00 0.00 0.00 42 1026.8
20260906124612 71 247 4.0 15.0 0.00 0.00 0.00 41 1026.9
20260906123112 71 327 5.0 11.0 0.00 0.00 0.00 42 1027.0
20260906121612 71 313 6.0 13.0 0.00 0.00 0.00 41 1027.1
20260906120112 71 292 9.0 12.0 0.00 0.00 0.00 43 1027.2
20260906114611 70 327 9.0 14.0 0.00 0.00 0.00 46 1027.1
20260906113113 70 323 7.0 13.0 0.00 0.00 0.00 46 1027.1
20260906110111 70 311 7.0 12.0 0.00 0.00 0.00 46 1027.1
20260906104611 69 316 5.0 10.0 0.00 0.00 0.00 48 1027.2
20260906103112 69 304 4.0 14.0 0.00 0.00 0.00 50 1027.5
20260906101611 67 278 5.0 15.0 0.00 0.00 0.00 51 1027.6
20260906094610 67 313 6.0 18.0 0.00 0.00 0.00 54 1027.6
20260906090110 66 290 5.0 12.0 0.00 0.00 0.00 57 1027.7
20260906084612 65 327 10.0 14.0 0.00 0.00 0.00 58 1027.7
20260906083110 64 334 4.0 11.0 0.00 0.00 0.00 60 1027.7
20260906081610 64 273 5.0 11.0 0.00 0.00 0.00 60 1027.5
20260906080110 64 5 7.0 12.0 0.00 0.00 0.00 63 1027.4
20260906074610 63 313 7.0 11.0 0.00 0.00 0.00 65 1027.4
20260906073110 62 279 10.0 15.0 0.00 0.00 0.00 66 1027.4
20260906071611 61 324 7.0 13.0 0.00 0.00 0.00 67 1027.1
20260906070109 61 320 6.0 13.0 0.00 0.00 0.00 67 1027.0
20260906064611 60 334 8.0 13.0 0.00 0.00 0.00 68 1026.9
20260906063109 59 291 5.0 11.0 0.00 0.00 0.00 71 1026.8
20260906061609 58 273 4.0 8.0 0.00 0.00 0.00 75 1026.8
20260906060109 56 316 3.0 6.0 0.00 0.00 0.00 76 1026.7
20260906054609 55 312 4.0 6.0 0.00 0.02 0.00 78 1026.6
20260906053109 53 281 2.0 4.0 0.00 0.02 0.00 82 1026.5
20260906051609 52 317 1.0 3.0 0.00 0.02 0.00 83 1026.3
20260906050109 51 306 2.0 3.0 0.00 0.02 0.00 84 1026.0
20260906044610 51 299 2.0 3.0 0.00 0.02 0.00 83 1025.9
20260906043114 51 284 0.0 2.0 0.00 0.02 0.00 83 1025.8
20260906041614 51 292 2.0 3.0 0.00 0.02 0.00 84 1025.7
20260906040113 50 317 3.0 4.0 0.00 0.02 0.00 85 1025.5
20260906034613 50 297 0.0 0.0 0.00 0.02 0.00 84 1025.6
20260906033113 50 296 1.0 3.0 0.00 0.02 0.00 83 1025.4
20260906024613 51 296 1.0 3.0 0.00 0.03 0.00 82 1025.0
20260906023113 51 312 2.0 3.0 0.00 0.03 0.00 82 1024.9
20260906021614 51 311 0.0 0.0 0.00 0.03 0.00 81 1024.9
20260906013112 53 312 0.0 0.0 0.00 0.03 0.00 80 1024.6
20260906010112 52 312 2.0 3.0 0.00 0.03 0.00 81 1024.2
20260906004612 52 312 1.0 2.0 0.00 0.03 0.00 81 1024.2
20260906003112 58 334 2.0 8.0 0.02 0.03 0.00 90 1018.2
20260906001612 54 312 0.0 0.0 0.00 0.03 0.00 79 1024.0
20260906000112 54 312 0.0 0.0 0.00 0.03 0.00 77 1023.9
20260905234612 55 312 1.0 2.0 0.00 0.03 0.00 76 1023.6
20260905231611 54 313 0.0 0.0 0.00 0.03 0.00 79 1023.3
20260905230111 55 313 0.0 0.0 0.00 0.03 0.00 79 1023.3
20260905224611 56 313 0.0 0.0 0.00 0.03 0.00 78 1023.3
20260905221611 57 313 0.0 0.0 0.00 0.03 0.00 76 1023.1
20260905220111 58 313 0.0 0.0 0.00 0.03 0.00 75 1023.2
20260905214611 58 313 0.0 0.0 0.00 0.03 0.03 73 1023.0
20260905211611 60 313 0.0 0.0 0.00 0.03 0.03 72 1022.6
20260905210110 60 313 0.0 0.0 0.00 0.03 0.03 71 1022.5
20260905204610 61 313 0.0 0.0 0.00 0.03 0.03 69 1022.4
20260905203110 62 313 0.0 0.0 0.00 0.03 0.03 64 1022.2
20260905201610 64 313 0.0 0.0 0.00 0.03 0.03 62 1022.2
20260905200110 65 319 1.0 5.0 0.00 0.03 0.03 60 1022.2
20260905194611 66 329 4.0 4.0 0.00 0.03 0.03 59 1021.7